This demonstration page uses our WeatherBlox Daily Observations layout. Learn more.

Left ArrowRight Arrow

53.62937, 11.41316

Hourly Observations for January 2, 2022

Temp ( °F °C ) Dew Point ( °F °C ) Humidity (%) Winds ( mph kmh ) Pressure ( in mb ) Visibility ( mi km ) Precip ( " mm )
12:20 am 00:20 Mostly Cloudy 52 11 48 9 88 88 S 5 7 30.00 1016 30 48 N/A
12:50 am 00:50 Partly Cloudy 52 11 48 9 88 88 S 6 9 30.00 1016 30 48 N/A
1:20 am 01:20 Partly Cloudy 52 11 48 9 88 88 S 6 9 29.97 1015 30 48 N/A
1:50 am 01:50 Partly Cloudy 52 11 48 9 88 88 SSW 7 11 29.97 1015 30 48 N/A
2:20 am 02:20 Mostly Cloudy 52 11 48 9 88 88 VRB 6 9 29.97 1015 30 48 N/A
2:50 am 02:50 Mostly Cloudy 52 11 48 9 88 88 SSW 6 9 29.97 1015 30 48 N/A
3:20 am 03:20 Mostly Cloudy 50 10 48 9 94 94 VRB 6 9 29.94 1014 30 48 N/A
3:50 am 03:50 Mostly Cloudy 50 10 48 9 94 94 SSW 6 9 29.94 1014 30 48 N/A
4:20 am 04:20 Mostly Cloudy 50 10 48 9 94 94 VRB 5 7 29.91 1013 30 48 N/A
4:50 am 04:50 Mostly Cloudy 50 10 48 9 94 94 SSW 6 9 29.91 1013 30 48 N/A
5:20 am 05:20 Cloudy 50 10 48 9 94 94 VRB 5 7 29.89 1012 30 48 N/A
5:50 am 05:50 Mostly Cloudy 50 10 48 9 94 94 VRB 6 9 29.89 1012 30 48 N/A
6:20 am 06:20 Mostly Cloudy 50 10 48 9 94 94 SSW 6 9 29.89 1012 4 6 N/A
6:50 am 06:50 Mostly Cloudy 50 10 50 10 100 100 VRB 5 7 29.86 1011 4 6 N/A
7:20 am 07:20 Mostly Cloudy 50 10 50 10 100 100 VRB 5 7 29.86 1011 4 6 N/A
7:50 am 07:50 Mostly Cloudy with Light Rain 50 10 50 10 100 100 SW 5 7 29.83 1010 3 5 N/A
8:20 am 08:20 Mostly Cloudy with Light Rain 50 10 50 10 100 100 VRB 6 9 29.83 1010 4 6 N/A
8:50 am 08:50 Mostly Cloudy with Light Rain 50 10 50 10 100 100 SSW 7 11 29.83 1010 5 8 N/A
9:20 am 09:20 Mostly Cloudy with Light Rain 50 10 50 10 100 100 VRB 5 7 29.83 1010 30 48 N/A
9:50 am 09:50 Mostly Cloudy with Light Rain 52 11 50 10 94 94 SSW 7 11 29.80 1009 4 6 N/A
10:20 am 10:20 Mostly Cloudy with Light Rain 52 11 52 11 100 100 SSW 6 9 29.80 1009 4 7 N/A
10:50 am 10:50 Mostly Cloudy with Light Rain 52 11 52 11 100 100 SSW 6 9 29.77 1008 30 48 N/A
11:20 am 11:20 Mostly Cloudy with Light Rain 52 11 52 11 100 100 SSW 5 7 29.74 1007 30 48 N/A
11:50 am 11:50 Mostly Cloudy with Light Rain 54 12 52 11 94 94 VRB 7 11 29.74 1007 30 48 N/A
12:20 pm 12:20 Mostly Cloudy with Light Rain 54 12 50 10 88 88 VRB 8 13 29.71 1006 30 48 N/A
12:50 pm 12:50 Mostly Cloudy with Light Rain 54 12 52 11 94 94 SW 10 17 29.71 1006 30 48 N/A
1:20 pm 13:20 Mostly Cloudy with Light Rain 54 12 52 11 94 94 VRB 8 13 29.68 1005 6 9 N/A
1:50 pm 13:50 Mostly Cloudy with Light Rain 52 11 52 11 100 100 SW 7 11 29.68 1005 6 9 N/A
2:20 pm 14:20 Mostly Cloudy with Light Rain 54 12 52 11 94 94 VRB 6 9 29.65 1004 30 48 N/A
2:50 pm 14:50 Mostly Cloudy with Light Rain 54 12 50 10 88 88 SW 7 11 29.65 1004 30 48 N/A
3:20 pm 15:20 Mostly Cloudy 54 12 50 10 88 88 VRB 9 15 29.62 1003 30 48 N/A
3:50 pm 15:50 Mostly Cloudy 54 12 48 9 82 82 WSW 15 24 29.62 1003 30 48 N/A
4:20 pm 16:20 Mostly Cloudy with Light Rain 54 12 48 9 82 82 VRB 14 22 29.62 1003 30 48 N/A
4:50 pm 16:50 Cloudy 54 12 46 8 77 77 WSW 22 35 29.65 1004 30 48 N/A
5:20 pm 17:20 Mostly Cloudy 54 12 45 7 72 72 WSW 21 33 29.65 1004 30 48 N/A
5:50 pm 17:50 Mostly Cloudy 52 11 43 6 72 72 W 23 37 29.65 1004 30 48 N/A
6:20 pm 18:20 Mostly Cloudy 50 10 45 7 82 82 W 17 28 29.68 1005 30 48 N/A
6:50 pm 18:50 Mostly Cloudy 50 10 45 7 82 82 WSW 17 28 29.68 1005 30 48 N/A
7:20 pm 19:20 Cloudy 50 10 45 7 82 82 WSW 16 26 29.68 1005 30 48 N/A
7:50 pm 19:50 Cloudy 50 10 45 7 82 82 W 18 30 29.71 1006 30 48 N/A
8:20 pm 20:20 Mostly Cloudy 48 9 45 7 87 87 W 13 20 29.68 1005 30 48 N/A
8:50 pm 20:50 Cloudy 50 10 45 7 82 82 W 12 19 29.68 1005 30 48 N/A
9:20 pm 21:20 Cloudy 50 10 45 7 82 82 W 13 20 29.68 1005 30 48 N/A
9:50 pm 21:50 Mostly Cloudy 50 10 45 7 82 82 W 12 19 29.68 1005 30 48 N/A
10:20 pm 22:20 Cloudy 50 10 45 7 82 82 WSW 12 19 29.68 1005 30 48 N/A
10:50 pm 22:50 Mostly Cloudy 50 10 45 7 82 82 WSW 10 17 29.68 1005 30 48 N/A
11:20 pm 23:20 Mostly Cloudy 48 9 45 7 87 87 SW 6 9 29.68 1005 30 48 N/A
11:50 pm 23:50 Mostly Cloudy 48 9 45 7 87 87 SW 6 9 29.65 1004 30 48 N/A

Powered by AerisWeather